www.pogodaiklimat.ru

Погода и климат >> Архив погоды >> Беларусь >> Житковичи


АРХИВ ПОГОДЫ в Житковичах

Время (UTC), дата Ветер
(напр.,м/с)
 
Видим.   Явления Облачность Т
(С)
Тd
(С)
f
(%)
Тe
(С)
Тes
(С)
Комфортность P
(гПа)
Po
(гПа)
Тmin
(С)
Tmax
(С)
R
(мм)
R24
(мм)
S
(см)
03 8.12 ЮВ 3 4000 м слабая переохл. морось (гололёд) 10/10 300 м
[St]
-2.2 -2.8 96 -7 -7 по сезону 1008.3 991.2
06 8.12 ЮВ 3 4000 м слабая переохл. морось (гололёд) 10/10 300 м
[St]
-1.6 -2.1 96 -7 -7 по сезону 1007.6 990.5 -2.6 1 4
09 8.12 ЮВ 2 4000 м слабый переохл. дождь (гололёд) {морось} 10/10 300 м
[Frnb Ns]
-0.4 -1.0 96 -4 -4 по сезону 1007.1 990.1
12 8.12 Ю 1 2000 м слабый дождь {морось} 10/10 300 м
[Frnb Ns]
+0.3 0.0 98 -2 -2 по сезону 1006.1 989.1
15 8.12 ЮВ 2 4000 м слабый дождь 10/10 300 м
[Frnb Ns]
+0.5 -0.1 96 -3 -3 по сезону 1006.0 989.1
18 8.12 Ю 1 4000 м слабый дождь 10/10 300 м
[Frnb Ns]
+1.2 +0.9 98 -1 -1 по сезону 1006.0 989.1 +1.4 5
21 8.12 Ю 1 500 м туман {дождь} ?/? +1.8 +1.8 100 -0 -0 тепло 1016.2 989.3
00 9.12 штиль 0 500 м туман {дождь} ?/? +2.2 +2.2 100 +1 +1 тепло 1006.5 989.6
03 9.12 Ю 1 500 м туман ?/? +2.0 +2.0 100 0 0 тепло 1006.2 989.3
06 9.12 Ю 1 500 м туман ?/? +1.1 +1.1 100 -1 -1 тепло 1004.9 988.0 +1.1 1 2
09 9.12 Ю 1 500 м туман ?/? +1.4 +1.4 100 -1 -1 по сезону 1004.6 987.7
12 9.12 ЮВ 1 4000 м дымка {туман} 10/10 300 м
[St]
+1.6 +1.3 98 -0 -0 по сезону 1002.3 985.8
15 9.12 ЮВ 2 4000 м дымка 9/9 600 м
[Sc]
+1.5 +1.2 98 -2 -2 по сезону 1001.2 984.4
18 9.12 ЮВ 1 4000 м дымка 9/9 600 м
[Sc]
+1.5 +1.0 96 -1 -1 по сезону 1000.7 983.9 +1.6
21 9.12 ЮВ 2 4000 м дымка 9/9 600 м
[Sc]
+2.6 +1.6 93 -1 -1 по сезону 1000.0 983.3
00 10.12 Ю 3 4000 м дымка 9/9 600 м
[Sc]
+3.1 +1.5 89 -1 -1 тепло 1000.2 983.5
03 10.12 Ю 2 4000 м дымка 9/9 600 м
[Sc]
+2.9 +1.9 93 -0 -0 тепло 1000.2 983.5
06 10.12 Ю 2 4000 м дымка 9/9 600 м
[Sc]
+2.8 +2.0 94 -1 -1 тепло 1000.5 983.8 +1.5 <0.5
09 10.12 Ю 2 2000 м в посл. час ливневой дождь 10/8 600 м
[Cb cap Ac und]
+2.8 +2.5 98 -1 -0 по сезону 1001.3 984.6
12 10.12 Ю 1 2000 м дымка {ливн. осадки} 10/6 600 м
[Cb cap Ac und]
+3.7 +3.2 97 +2 +2 тепло 1001.9 985.2
15 10.12 Ю 1 2000 м слабый ливневой дождь 10/8 600 м
[Cb cap Ac und]
+3.5 +3.3 99 +2 +2 тепло 1002.8 986.1
18 10.12 ЮВ 1 2000 м слабый ливневой дождь 10/8 600 м
[Cb cap Ac und]
+3.4 +2.9 97 +2 +2 тепло 1002.8 986.1 +3.9 3
21 10.12 Ю 2 2000 м слабый ливневой дождь 10/9 600 м
[Cb cap Ac und]
+3.3 +3.0 98 0 0 тепло 1003.1 986.4
00 11.12 штиль 0 2000 м слабый ливневой дождь 10/9 600 м
[Cb cap Ac und]
+2.9 +2.7 99 +2 +2 тепло 1004.6 987.8
03 11.12 З 2 2000 м слабый ливневой дождь 10/9 600 м
[Cb cap Ac und]
+2.1 +1.8 98 -1 -1 тепло 1006.1 989.2
06 11.12 З 2 4000 м дымка {ливн. осадки} 10/8 600 м
[Cb cap Ac und]
+1.6 +1.1 96 -2 -2 по сезону 1008.5 991.6 +1.6 2
09 11.12 З 2 4000 м дымка 10/5 600 м
[Sc diur, vesp Ac As]
+1.9 +1.4 96 -2 -1 по сезону 1010.2 993.2
12 11.12 З 2 4000 м дымка 10/8 600 м
[Cb cap Ac As]
+1.6 +1.1 96 -2 -2 по сезону 1011.2 994.2
15 11.12 З 2 4000 м дымка {ливн. осадки} 10/8 600 м
[Cb cap Ac und]
+1.4 +0.9 96 -2 -2 по сезону 1012.9 995.9
18 11.12 штиль 0 2000 м дымка {ливн. осадки} 9/9 300 м
[Sc]
+1.0 +0.7 98 -0 -0 тепло 1014.2 997.2 +2.4 0.5
21 11.12 штиль 0 2000 м дымка 9/9 300 м
[Sc]
+0.7 +0.4 98 -1 -1 по сезону 1014.9 997.9
00 12.12 З 1 2000 м слабый снег 9/9 300 м
[Sc]
+0.6 +0.3 98 -2 -2 по сезону 1015.2 998.2
03 12.12 штиль 0 2000 м дымка {снег} 9/9 300 м
[Sc]
+0.5 +0.2 98 -1 -1 тепло 1015.6 998.6
06 12.12 С 1 500 м туман {снег} ?/? +0.4 +0.4 100 -2 -2 по сезону 1016.4 999.3 +0.4 0.1
09 12.12 С 2 4000 м в посл. час туман 9/9 600 м
[Sc]
+1.2 +0.7 96 -2 -2 по сезону 1017.0 1000.0
12 12.12 С 3 4000 м дымка {туман} 9/9 1000 м
[Sc]
+1.4 +0.9 96 -3 -3 по сезону 1016.8 999.8
15 12.12 С 3 4000 м дымка 9/9 600 м
[Sc]
+1.2 +0.1 92 -3 -3 по сезону 1016.9 999.9
18 12.12 С 4
{10}
4000 м слабый снег 9/9 300 м
[Sc]
+1.0 -0.1 92 -4 -4 по сезону 1016.9 999.9 +2.0 0.0
21 12.12 С 3 4000 м слабый снег 10/8 300 м
[Frnb As op]
+0.8 0.0 94 -4 -4 по сезону 1016.8 999.8
00 13.12 С 3 4000 м слабый снег 10/8 300 м
[Frnb As op]
+0.7 -0.1 94 -4 -4 по сезону 1016.7 999.7
03 13.12 С 3 4000 м слабый снег 10/10 300 м
[Frnb Ns]
-0.1 -0.7 96 -5 -5 по сезону 1016.8 999.6
06 13.12 СВ 4 2000 м снег 10/10 300 м
[Frnb Ns]
-0.4 -1.0 96 -6 -6 по сезону 1016.9 999.7 -0.4 3 2
09 13.12 С 4 4000 м слабый снег 10/10 300 м
[Frnb Ns]
-0.5 -1.1 96 -6 -6 по сезону 1017.1 999.9
12 13.12 С 4 4000 м слабый снег 10/10 300 м
[Frnb Ns]
-0.3 -1.2 94 -6 -6 по сезону 1017.1 999.9
15 13.12 С 3 4000 м слабый снег 10/8 600 м
[Sc As op]
-0.4 -1.3 94 -5 -5 по сезону 1017.8 1000.6
18 13.12 С 2 4000 м слабый снег 10/10 300 м
[Frnb Ns]
-0.4 -1.6 92 -4 -4 по сезону 1018.6 1001.4 -0.2 3
21 13.12 С 2 4000 м слабый снег 9/9 600 м
[Sc]
-0.3 -1.2 94 -4 -4 по сезону 1020.0 1002.7
00 14.12 С 2 4000 м дымка {снег} 9/9 600 м
[Sc]
-0.3 -0.9 96 -4 -4 по сезону 1021.2 1003.9
03 14.12 СВ 2 4000 м дымка 9/9 600 м
[Sc]
-0.2 -1.1 94 -4 -4 по сезону 1022.2 1004.9
06 14.12 С 1 4000 м дымка {снег} 10/9 300 м
[Sc]
-0.4 -1.0 96 -3 -3 по сезону 1023.3 1006.0 -0.4 0.8 5
09 14.12 СВ 1 4000 м слабый снег 10/9 300 м
[Frnb As op]
-0.2 -0.8 96 -2 -2 по сезону 1025.2 1007.9
12 14.12 штиль 0 4000 м слабый снег 10/9 300 м
[Frnb As op]
0.0 -1.2 92 -1 -1 по сезону 1025.7 1008.4
15 14.12 С 1 4000 м слабый снег 9/9 300 м
[Sc]
+0.1 -0.8 94 -2 -2 по сезону 1026.6 1009.3
18 14.12 С 1 4000 м слабый снег 9/9 300 м
[Sc]
0.0 -0.6 96 -2 -2 по сезону 1026.9 1009.6 +0.4 0.6
21 14.12 С 1 4000 м слабый снег 9/9 600 м
[Sc]
-0.3 -0.9 96 -3 -3 по сезону 1027.9 1010.6

 

Местоположение метеостанции Житковичи (Гомельская область, Беларусь): широта 52.22 долгота 27.87 высота над уровнем моря 137 м.

В архиве по умолчанию представлена погода в Житковичах за последнюю неделю. Архивные данные за месяц целиком и за предыдущие месяцы, начиная с января 2011 года, Вы можете получить, выбрав интересующий диапазон дат из раскрывающегося списка и нажав кнопку "Ввод!".


*Определитесь, кто Вы:
робот инопланетянин человек

Внимание! Время в таблицах - всемирное. Для получения местного времени необходимо прибавить поправку, которая в Житковичах равна 3 ч.

Смотрите также архив погоды в соседних городах и на ближайших метеорологических станциях:

Погода в Полесской (Брестская область, Беларусь) (80 км)
Погода в Октябре (Гомельская область, Беларусь) (82 км)
Погода в Мозыре (Гомельская область, Беларусь) (92 км)
Погода в Слуцке (Минская область, Беларусь) (93 км)
Погода в Олевске (Житомирская область, Украина) (112 км)
Погода в Ганцевичах (Брестская область, Беларусь) (113 км)
Погода в Овруче (Житомирская область, Украина) (118 км)
Погода в Пинске (Брестская область, Беларусь) (124 км)
Погода в Василевичах (Гомельская область, Беларусь) (134 км)
Погода в Сарнах (Ровенская область, Украина) (135 км)

Пояснения к столбцам:

Ветер - указаны скорость ветра в м/с - средняя за 10 мин, порывы в срок и между сроками (в фигурных скобках) и направление, откуда дует ветер: С - северный, СВ - северо-восточный, В - восточный, ЮВ - юго-восточный, Ю - южный, ЮЗ - юго-западный, З - западный, СЗ - северо-западный.
Видимость - горизонтальная дальность видимости в метрах или километрах. При видимости от 1 до 10 км при отсутствии осадков обычно наблюдается дымка, при ухудшении видимости до 1 км и менее - туман. В сухую погоду видимость может ухудшаться дымом, пылью или мглою.
Явления - указаны атмосферные явления, наблюдавшиеся в срок или в последний час перед сроком; фигурными скобками обозначены явления, наблюдавшиеся между сроками (за 1-3 часа до срока); квадратными скобками обозначены град или гололедные отложения с указанием их диаметра в мм.
Облачность - указаны через наклонную черту общая и нижняя облачность в баллах и высота нижней границы облаков в метрах; квадратными скобками обозначены формы облаков: Ci - перистые, Cs - перисто-слоистые, Cc - перисто-кучевые, Ac - высококучевые, As - высокослоистые, Sc - слоисто-кучевые, Ns - слоисто-дождевые, Cu - кучевые, Cb - кучево-дождевые. Подробнее классификацию облаков см. в Атласе облаков (PDF).
T - Температура воздуха - температура, измеренная на высоте 2 м над землей.
Td - Температура точки росы - температура, при понижении до которой содержащийся в воздухе водяной пар достигнет насыщения.
f - Относительная влажность воздуха - влажноcть воздуха, измеренная на высоте 2 м над землей.
Te - Эффективная температура - температура, которую ощущает одетый по сезону человек в тени. Характеристика душности погоды. При расчете учитывается влияние влажности воздуха и скорости ветра на теплоощущения человека.
Tes - Эффективная температура на солнце - температура, которую ощущает человек, с поправкой на солнечный нагрев. Характеристика знойности погоды. Зависит от высоты солнца над горизонтом, облачности и скорости ветра. Ночью, в пасмурную погоду, а также при ветре 12 м/с и более поправка равна нулю.
P - Атмосферное давление - приведенное к уровню моря атмосферное давление.
Po - Атмосферное давление - измеренное на уровне метеостанции атмосферное давление.
Tmin - Минимальная температура - минимум температуры воздуха на высоте 2 м над землей.
Tmax - Максимальная температура - максимум температуры воздуха на высоте 2 м над землей.
R - Количество осадков - Количество выпавших осадков за период времени, мм. При наведении курсора мыши на число - период времени, за который выпало указанное количество осадков.
R24 - Количество осадков - Количество выпавших осадков за 24 часа, мм.
S - Снежный покров - Высота снежного покрова, см. При наведении курсора мыши на число - состояние снежного покрова и степень покрытия местности в баллах.